This demonstration page uses our WeatherBlox Daily Observations layout. Learn more.

Left ArrowRight Arrow

Hourly Observations for March 22, 2017

Temp ( °F °C ) Dew Point ( °F °C ) Humidity (%) Winds ( mph kmh ) Pressure ( in mb ) Visibility ( mi km ) Precip ( " mm )
12:53 am 00:53 Clear 39 3.9 26 -3.3 60 60 N 8 13 30.26 1025 10 16.0934 N/A
1:53 am 01:53 Clear 38 3.3 26 -3.3 62 62 N 12 19 30.29 1026 10 16.0934 N/A
2:53 am 02:53 Clear 35 1.7 26 -3.3 70 70 NNE 8 13 30.34 1027 10 16.0934 N/A
3:53 am 03:53 Clear 34 1.1 23 -5 64 64 N 7 11 30.35 1028 10 16.0934 N/A
4:53 am 04:53 Clear 32 undefined 21 -6.1 64 64 NNE 10 17 30.36 1028 10 16.0934 N/A
5:53 am 05:53 Clear 31 -0.6 18 -7.8 59 59 NNE 10 17 30.37 1029 10 16.0934 N/A
6:53 am 06:53 Clear 30 -1.1 17 -8.3 58 58 NNE 10 17 30.41 1030 10 16.0934 N/A
7:53 am 07:53 Sunny 28 -2.2 17 -8.3 63 63 NNE 9 15 30.45 1031 10 16.0934 N/A
8:53 am 08:53 Sunny 29 -1.7 18 -7.8 63 63 NE 9 15 30.48 1032 10 16.0934 N/A
9:53 am 09:53 Sunny 30 -1.1 18 -7.8 61 61 ENE 13 20 30.51 1033 10 16.0934 N/A
10:53 am 10:53 Sunny 32 undefined 18 -7.8 56 56 NE 10 17 30.53 1034 10 16.0934 N/A
11:53 am 11:53 Sunny 34 1.1 18 -7.8 52 52 NNE 7 11 30.55 1035 10 16.0934 N/A
12:53 pm 12:53 Sunny 36 2.2 20 -6.7 52 52 E 10 17 30.55 1034 10 16.0934 N/A
1:53 pm 13:53 Sunny 39 3.9 20 -6.7 46 46 NNE 10 17 30.54 1034 10 16.0934 N/A
2:53 pm 14:53 Sunny 41 5 21 -6.1 45 45 NE 9 15 30.52 1033 10 16.0934 N/A
3:53 pm 15:53 Sunny 42 5.6 22 -5.6 45 45 ENE 12 19 30.49 1033 10 16.0934 N/A
4:53 pm 16:53 Sunny 41 5 19 -7.2 41 41 NE 8 13 30.49 1033 10 16.0934 N/A
5:53 pm 17:53 Sunny 42 5.6 20 -6.7 41 41 ENE 10 17 30.49 1033 10 16.0934 N/A
6:53 pm 18:53 Sunny 40 4.4 20 -6.7 45 45 E 12 19 30.49 1033 10 16.0934 N/A
7:53 pm 19:53 Clear 37 2.8 20 -6.7 50 50 ENE 9 15 30.5 1033 10 16.0934 N/A
8:53 pm 20:53 Clear 36 2.2 21 -6.1 55 55 E 9 15 30.5 1033 10 16.0934 N/A
9:53 pm 21:53 Clear 34 1.1 20 -6.7 56 56 ENE 9 15 30.52 1034 10 16.0934 N/A
10:53 pm 22:53 Clear 33 0.6 20 -6.7 58 58 ENE 8 13 30.52 1034 10 16.0934 N/A
11:53 pm 23:53 Clear 31 -0.6 20 -6.7 64 64 ENE 5 7 30.53 1034 10 16.0934 N/A

Powered by AerisWeather